Location: Bluff Heights
(33.7692°N, 118.1592°W)
Time: 00:22:18
(UTC+00:00)

Tiros 1 - Pass Details

Date: 24 July 2021
Orbit: 630 x 663 km, 48.4° (Epoch: 20 September)

Event Time Altitude Azimuth Distance (km) Brightness Sun altitude
Rises 05:03:56 0° 251° (WSW) 2,964 10.9 -22.1°
Reaches altitude 10° 05:06:24 10° 258° (WSW) 2,050 10.1 -22.4°
Maximum altitude 05:10:51 40° 329° (NNW) 948 8.4 -23.1°
Drops below altitude 10° 05:15:17 10° 39° (NE) 2,036 9.8 -23.7°
Sets 05:17:43 0° 47° (NE) 2,941 10.6 -24.0°
